Hourly Weather Rumburk

Today, 15 April, Thursday

Time Temperature Precipitation Wind Pressure Humidity
00:00 0°C° 0 mm 1 mps 730 mmHg 80%
01:00 0°C° 0 mm 1 mps 730 mmHg 83%
02:00 -1°C° 0 mm 1 mps 730 mmHg 84%
03:00 -3°C° 0 mm 2 mps 730 mmHg 86%
04:00 -3°C° 0 mm 2 mps 730 mmHg 87%
05:00 -2°C° 0 mm 2 mps 730 mmHg 85%
06:00 -2°C° 0 mm 3 mps 730 mmHg 82%
07:00 -1°C° 0 mm 3 mps 730 mmHg 79%
08:00 -1°C° 0 mm 4 mps 730 mmHg 74%
09:00 0°C° 0 mm 4 mps 730 mmHg 69%
10:00 0°C° 0 mm 5 mps 730 mmHg 63%
11:00 0°C° 0.1 mm 5 mps 730 mmHg 67%
12:00 0°C° 0.1 mm 5 mps 730 mmHg 71%
13:00 0°C° 0.1 mm 5 mps 730 mmHg 75%
14:00 0°C° 0.2 mm 5 mps 730 mmHg 79%
15:00 0°C° 0.2 mm 5 mps 729 mmHg 84%
16:00 -1°C° 0.2 mm 5 mps 729 mmHg 88%
17:00 -1°C° 0.3 mm 5 mps 729 mmHg 90%
18:00 -2°C° 0.3 mm 4 mps 729 mmHg 93%
19:00 -2°C° 0.3 mm 4 mps 729 mmHg 95%
20:00 -2°C° 0.3 mm 4 mps 729 mmHg 96%
21:00 -3°C° 0.3 mm 4 mps 728 mmHg 96%
22:00 -3°C° 0.3 mm 4 mps 728 mmHg 96%
23:00 -2°C° 0.3 mm 3 mps 728 mmHg 97%

Tomorrow, 16 April, Friday

Time Temperature Precipitation Wind Pressure Humidity
00:00 -2°C° 0.3 mm 3 mps 728 mmHg 97%
01:00 -2°C° 0.3 mm 3 mps 728 mmHg 98%
02:00 -2°C° 0.3 mm 3 mps 728 mmHg 98%
03:00 -2°C° 0.3 mm 2 mps 727 mmHg 98%
04:00 -2°C° 0.3 mm 2 mps 727 mmHg 98%
05:00 -2°C° 0.4 mm 2 mps 727 mmHg 98%
06:00 -2°C° 0.4 mm 2 mps 728 mmHg 99%
07:00 -2°C° 0.4 mm 2 mps 728 mmHg 99%
08:00 -1°C° 0.2 mm 2 mps 728 mmHg 99%
09:00 -1°C° 0.2 mm 2 mps 728 mmHg 99%
10:00 -1°C° 0.2 mm 2 mps 728 mmHg 99%
11:00 +1°C° 0.1 mm 2 mps 728 mmHg 98%
12:00 +2°C° 0.1 mm 1 mps 728 mmHg 97%
13:00 +3°C° 0.1 mm 1 mps 728 mmHg 96%
14:00 +4°C° 0 mm 1 mps 728 mmHg 95%
15:00 +4°C° 0 mm 1 mps 728 mmHg 94%
16:00 +4°C° 0 mm 2 mps 728 mmHg 93%
17:00 +4°C° 0 mm 1 mps 728 mmHg 93%
18:00 +4°C° 0 mm 1 mps 728 mmHg 94%
19:00 +3°C° 0 mm 1 mps 728 mmHg 94%
20:00 +2°C° 0 mm 1 mps 728 mmHg 95%
21:00 +1°C° 0 mm 1 mps 728 mmHg 96%
22:00 +1°C° 0 mm 1 mps 728 mmHg 97%
23:00 0°C° 0 mm 1 mps 728 mmHg 97%

Day after tomorrow, 17 April, Saturday

Time Temperature Precipitation Wind Pressure Humidity
00:00 0°C° 0 mm 1 mps 728 mmHg 97%
01:00 -1°C° 0 mm 1 mps 727 mmHg 97%
02:00 0°C° 0.1 mm 1 mps 727 mmHg 98%
03:00 0°C° 0.1 mm 1 mps 727 mmHg 98%
04:00 0°C° 0.1 mm 1 mps 727 mmHg 99%
05:00 +1°C° 0.4 mm 1 mps 727 mmHg 99%
06:00 +1°C° 0.4 mm 1 mps 727 mmHg 99%
07:00 +1°C° 0.4 mm 1 mps 727 mmHg 99%
08:00 +1°C° 0.1 mm 1 mps 727 mmHg 99%
09:00 +2°C° 0.1 mm 1 mps 727 mmHg 99%
10:00 +2°C° 0.1 mm 1 mps 727 mmHg 99%
11:00 +2°C° 0 mm 1 mps 727 mmHg 99%
12:00 +2°C° 0 mm 1 mps 727 mmHg 99%
13:00 +3°C° 0 mm 1 mps 727 mmHg 98%
14:00 +3°C° 0 mm 1 mps 727 mmHg 99%
15:00 +3°C° 0 mm 1 mps 727 mmHg 99%
16:00 +3°C° 0 mm 1 mps 727 mmHg 99%
17:00 +3°C° 0 mm 1 mps 727 mmHg 99%
18:00 +3°C° 0 mm 1 mps 727 mmHg 99%
19:00 +2°C° 0 mm 1 mps 727 mmHg 99%
20:00 +2°C° 0.1 mm 1 mps 727 mmHg 99%
21:00 +2°C° 0.1 mm 1 mps 727 mmHg 99%
22:00 +2°C° 0.1 mm 1 mps 728 mmHg 99%
23:00 +2°C° 0.1 mm 1 mps 727 mmHg 99%

18 April, Sunday

Time Temperature Precipitation Wind Pressure Humidity
00:00 +3°C° 0.1 mm 1 mps 727 mmHg 99%
01:00 +3°C° 0.1 mm 1 mps 727 mmHg 99%
02:00 +3°C° 0 mm 1 mps 727 mmHg 99%
03:00 +3°C° 0 mm 1 mps 727 mmHg 99%
04:00 +3°C° 0 mm 1 mps 727 mmHg 99%
05:00 +3°C° 0 mm 1 mps 727 mmHg 99%
06:00 +4°C° 0 mm 1 mps 727 mmHg 99%
07:00 +4°C° 0 mm 1 mps 727 mmHg 98%
08:00 +4°C° 0 mm 1 mps 727 mmHg 97%
09:00 +5°C° 0 mm 1 mps 727 mmHg 96%
10:00 +6°C° 0 mm 1 mps 727 mmHg 95%
11:00 +6°C° 0 mm 1 mps 727 mmHg 93%
12:00 +7°C° 0 mm 1 mps 727 mmHg 91%
13:00 +7°C° 0 mm 1 mps 727 mmHg 89%
14:00 +7°C° 0 mm 1 mps 727 mmHg 87%
15:00 +8°C° 0 mm 1 mps 727 mmHg 86%
16:00 +8°C° 0 mm 1 mps 726 mmHg 85%
17:00 +7°C° 0 mm 1 mps 726 mmHg 88%
18:00 +6°C° 0 mm 1 mps 726 mmHg 91%
19:00 +5°C° 0 mm 1 mps 726 mmHg 94%
20:00 +5°C° 0 mm 1 mps 727 mmHg 94%
21:00 +5°C° 0 mm 1 mps 727 mmHg 95%
22:00 +4°C° 0 mm 1 mps 727 mmHg 96%
23:00 +4°C° 0 mm 1 mps 727 mmHg 96%

19 April, Monday

Time Temperature Precipitation Wind Pressure Humidity
00:00 +5°C° 0 mm 1 mps 726 mmHg 96%
01:00 +5°C° 0 mm 1 mps 726 mmHg 97%
02:00 +5°C° 0 mm 1 mps 726 mmHg 97%
03:00 +4°C° 0 mm 1 mps 726 mmHg 98%
04:00 +4°C° 0 mm 1 mps 726 mmHg 98%
05:00 +5°C° 0 mm 1 mps 726 mmHg 98%
06:00 +5°C° 0 mm 1 mps 726 mmHg 98%
07:00 +6°C° 0 mm 1 mps 726 mmHg 98%
08:00 +6°C° 0 mm 1 mps 726 mmHg 96%
09:00 +6°C° 0 mm 2 mps 726 mmHg 93%
10:00 +7°C° 0 mm 2 mps 726 mmHg 91%
11:00 +7°C° 0.1 mm 2 mps 726 mmHg 89%
12:00 +7°C° 0.1 mm 2 mps 726 mmHg 88%
13:00 +8°C° 0.1 mm 2 mps 726 mmHg 86%
14:00 +8°C° 0.1 mm 2 mps 725 mmHg 85%
15:00 +8°C° 0.1 mm 2 mps 725 mmHg 84%
16:00 +8°C° 0.1 mm 2 mps 725 mmHg 84%
17:00 +7°C° 0 mm 2 mps 725 mmHg 87%
18:00 +7°C° 0 mm 2 mps 725 mmHg 90%
19:00 +7°C° 0 mm 1 mps 725 mmHg 93%
20:00 +6°C° 0 mm 1 mps 725 mmHg 94%
21:00 +6°C° 0 mm 1 mps 725 mmHg 94%
22:00 +5°C° 0 mm 1 mps 725 mmHg 95%
23:00 +5°C° 0 mm 1 mps 725 mmHg 95%

20 April, Tuesday

Time Temperature Precipitation Wind Pressure Humidity
00:00 +5°C° 0 mm 1 mps 725 mmHg 96%
01:00 +5°C° 0 mm 1 mps 724 mmHg 97%
02:00 +5°C° 0 mm 1 mps 724 mmHg 97%
03:00 +5°C° 0 mm 1 mps 724 mmHg 98%
04:00 +5°C° 0 mm 1 mps 724 mmHg 98%
05:00 +6°C° 0 mm 1 mps 724 mmHg 97%
06:00 +6°C° 0 mm 1 mps 724 mmHg 96%
07:00 +7°C° 0 mm 1 mps 725 mmHg 94%
08:00 +7°C° 0.1 mm 2 mps 725 mmHg 89%
09:00 +8°C° 0.1 mm 2 mps 725 mmHg 83%
10:00 +9°C° 0.1 mm 3 mps 725 mmHg 78%
11:00 +9°C° 0.3 mm 2 mps 724 mmHg 75%
12:00 +10°C° 0.3 mm 2 mps 724 mmHg 72%
13:00 +10°C° 0.3 mm 2 mps 724 mmHg 69%
14:00 +10°C° 0.2 mm 2 mps 724 mmHg 70%
15:00 +10°C° 0.2 mm 2 mps 724 mmHg 71%
16:00 +10°C° 0.2 mm 2 mps 724 mmHg 72%
17:00 +9°C° 0.1 mm 2 mps 724 mmHg 77%
18:00 +8°C° 0.1 mm 2 mps 724 mmHg 82%
19:00 +7°C° 0.1 mm 2 mps 724 mmHg 87%
20:00 +7°C° 0 mm 1 mps 724 mmHg 88%
21:00 +6°C° 0 mm 1 mps 724 mmHg 90%
22:00 +6°C° 0 mm 1 mps 724 mmHg 91%
23:00 +5°C° 0 mm 1 mps 724 mmHg 91%
Show more